Regional Weather Roundup
Issued by NWS Wakefield, VA

Home | Current Version | Previous Version | Text Only | Print | Product List | Glossary Off
Versions: 1 2 3 4 5 6 7 8 9 10 11 12 13 14 15 16 17 18 19 20 21 22 23 24 25 26 27 28

000
ASUS41 KAKQ 241215
RWRAKQ

REGIONAL WEATHER ROUNDUP
NATIONAL WEATHER SERVICE WAKEFIELD VA
800 AM EDT SUN JUL 24 2016

Note: "fair" indicates few or no clouds below 12,000 feet with no
significant weather and/or obstructions to visibility. * = Denotes
station may not report precipitation (e.g., rain,snow,etc.),
thunder or fog.

VAZ042-051-052>054-056-241300-
NORTHERN VIRGINIA

CITY           SKY/WX    TMP DP  RH WIND       PRES   REMARKS
WASH NATIONAL  FAIR      82  68  62 NE7       30.00R
DULLES         FAIR      81  69  67 N5        30.01R
FORT BELVOIR   FAIR      81  69  65 VRB3      29.99R
QUANTICO       FAIR      83  69  62 N6        30.00R
FREDERICKSBRG* FAIR      81  73  77 N3        29.98S
STAFFORD*      FAIR      82  69  66 N5        30.03S
WARRENTON      FAIR      80  68  66 CALM      30.01R
CULPEPER*      FAIR      80  74  82 N3        30.02R
MANASSAS*      SUNNY     81  73  78 N7        30.00R
LEESBURG*      FAIR      81  73  78 N3        30.03S
WINCHESTER     CLOUDY    77  70  78 CALM      30.03F
FRONT ROYAL*   FAIR      75  72  88 CALM      30.03S
LURAY*         FAIR      73  73 100 CALM      30.05S
$$

VAZ048-049-060>072-079>083-241300-
CENTRAL AND SOUTH CENTRAL VIRGINIA

CITY           SKY/WX    TMP DP  RH WIND       PRES   REMARKS
RICHMOND       PTSUNNY   81  75  82 W3        29.99R
CHESTERFIELD*  FAIR      81  64  57 W5        30.01R
PETERSBURG*    FAIR      81  78  92 SW5       30.00S
HANOVER        FAIR      81  73  76 W3        30.01R
TAPPAHANNOCK*  FAIR      82  80  94 CALM      29.99R
QUINTON*       FAIR      78  76  93 CALM      29.98R
CHARLOTTSVILLE FAIR      79  72  79 CALM      30.02R
GORDONSVILLE*  FAIR      78  74  87 CALM      30.00S
ORANGE*          N/A     81  73  78 CALM      30.02S
LOUISA*        FAIR      82  75  78 CALM      30.00R
BUMPASS*       FAIR      81  74  81 CALM      30.00R
FARMVILLE*     FAIR      78  77  95 CALM      30.00R
CREWE*         FAIR      79  77  94 CALM      30.01R
FORT PICKETT*  FAIR      78  77  97 SW7       30.01R
CHASE CITY*    FAIR      77  75  94 CALM      30.02R
CLARKSVILLE*   FAIR      77  77 100 CALM      30.01S
SOUTH HILL*    FAIR      78  75  92 SW3       30.07S
LAWRENCEVILLE* FAIR      78  76  93 SW3       30.00S
EMPORIA*       FAIR      77  73  88 CALM      30.01S
$$

VAZ088>098-241300-
SOUTHEAST VIRGINIA

CITY           SKY/WX    TMP DP  RH WIND       PRES   REMARKS
NORFOLK        FAIR      83  73  72 SW7       29.98S
VIRGINIA BEACH PTSUNNY   85  74  69 SW9       29.97S
NORFOLK NAVAL  FAIR      82  74  76 SW7       30.00R
WEST POINT*    FAIR      80  76  87 W5        29.99S
SALUDA*        FAIR      81  78  90 SW3       29.97R
NEWPORT NEWS   FAIR      82  76  81 W9        29.99R
LANGLEY AFB    FAIR      82  76  81 S10       29.98R
FORT EUSTIS    FAIR      83  76  79 VRB3      29.97R
WILLIAMSBURG*  FAIR      82  75  78 W7        30.00R
HR EXEC AP*    FAIR      79  73  83 W5        30.01S
FRANKLIN*      FAIR      78  74  86 SW6       30.00S
US460-WAKEFLD  FAIR      79  74  84 W7        29.99R
$$

VAZ020-022-025-037-045-241300-
WEST CENTRAL AND SOUTHWEST VIRGINIA

CITY           SKY/WX    TMP DP  RH WIND       PRES   REMARKS
STAUNTON*      FAIR      72  70  93 CALM      30.08F
WAYNESBORO*    FAIR      73  69  85 CALM      30.08S
HOT SPRINGS VA FAIR      75  64  69 CALM      30.21S
LYNCHBURG      FAIR      76  72  87 CALM      30.05R
DANVILLE       FAIR      76  73  91 W5        30.03R
SOUTH BOSTON*  FAIR      76  75  96 SW3       30.02S
MARTINSVILLE   FAIR      71  69  92 CALM      30.07S
ROANOKE        FAIR      77  69  76 NW3       30.09R
BLACKSBURG     FAIR      71  68  91 CALM      30.16S
DUBLIN*        FAIR      73  69  90 SW3       30.15R
MARION*        FAIR      71  68  91 CALM      30.18S
HILLSVILLE*    FAIR      70  67  90 CALM      30.16R
RICHLANDS*     FAIR      71  70  97 CALM      30.15F
WISE*          FAIR      72  68  88 E3        30.16S
ABINGDON*      FAIR      73  70  91 CALM      30.14S
$$

MDZ021>025-VAZ099-100-241300-
SOUTHERN MARYLAND AND THE DELMARVA PENINSULA

CITY           SKY/WX    TMP DP  RH WIND       PRES   REMARKS
PATUXENT RIVER MOSUNNY   83  72  69 NE8       29.97R
BAY BRIDGE APT SUNNY     81  72  74 CALM      29.98R
LEONARDTOWN    SUNNY     81  72  74 NE3       29.99S
DOVER          SUNNY     76  76 100 N7        29.97R
GEORGETOWN     SUNNY     82  72  71 NE7       29.98R
EASTON         SUNNY     79  75  89 NE6       30.01R
CAMBRIDGE      SUNNY     77  72  83 CALM      29.97R
SALISBURY      SUNNY     81  75  82 NE5       29.97R
OCEAN CITY     SUNNY     81  74  79 N5        29.97R
WALLOPS ISLAND FAIR      85  78  80 NW5       29.96R HX  96
ACCOMACK*      FAIR      84  77  79 W8        29.97R
$$

NCZ012>017-030>032-241300-
NORTH CENTRAL AND EASTERN NORTH CAROLINA

CITY           SKY/WX    TMP DP  RH WIND       PRES   REMARKS
ROANOKE RAPIDS FAIR      75  73  94 SW6       30.01S
RALEIGH        PTSUNNY   78  75  90 SW6       30.02S
ELIZABETH CITY SUNNY     79  74  84 SW7       30.00S
AHOSKIE*       SUNNY     76  74  92 CALM      30.01S
EDENTON*       SUNNY     82  72  72 W8        30.02R
CURRITUCK*     SUNNY     80  75  85 SW7       30.00S
KILL DEVIL HLS SUNNY     82  75  78 W9        30.00R
MANTEO           N/A     80  78  93 W12       30.01S
CAPE HATTERAS  SUNNY     82  77  84 W7        30.02R
TARBORO*       FAIR      78  74  87 SW3       30.02S
GOLDSBORO      SUNNY     76  76 100 SW3       30.00S
WASHINGTON     SUNNY     78  75  91 SW7       30.01S
GREENVILLE     SUNNY     79  73  83 SW5       30.03S
NEW BERN       SUNNY     81  76  84 SW6       30.03S
WILMINGTON     SUNNY     82  76  81 SW8       30.02R
$$

VAZ048-241300-
ELSEWHERE

CITY           SKY/WX    TMP DP  RH WIND       PRES   REMARKS
HARRISBURG PA  MOSUNNY   75  66  73 NW6       30.01S
BALTIMORE      MOSUNNY   81  65  58 N3        29.99R
ANNAPOLIS      SUNNY     83  69  62 CALM      29.98R
ANDREWS AFB    FAIR      79  69  70 NE7       29.99R
PHILADELPHIA   MOSUNNY   80  64  58 N5        30.00R
GREENSBORO     CLOUDY    77  73  87 W5        30.04R
ROCKY MOUNT    MOSUNNY   77  74  90 SW3       30.02R
$$

VAZ100-241300-
MARINE

STATION/POSITION TIME  TEMP    WIND        PRES    WAVE   SWELL
                       AIR SEA DIR/SP/G            HT/PER HT/PER
                 (UTC) (F)     (DEG/KT/KT) (MB)    (FT/S) (FT/S)
BRANDYWINE LGT   1148   80      20/ 11/ 12   N/A
CAPE MAY NJ      1100   79 74   10/  4/  6 1014.1R
LEWES DE         1100   77 74  340/  3/  4 1014.3R
OCEAN-CITY-INLET 1100   78 73   20/  4/  5 1014.7R
WACHAPREAGUE VA  1100   82 86  260/  4/  6 1014.2R
THOMAS POINT MD  1200   80 82   10/  6/  6 1016.9R
GOOSES REEF MD   1100   83 83   70/  8/ 10 1015.7R   1/ 3
COVE POINT MD    1100   82      70/  5/  7 1015.3R
SOLOMONS ISLAND  1100   82 84   10/  3/  3   N/A
BISHOPS HEAD MD  1100   82 85   40/  6/ 10 1014.7R
PINEY POINT MD   1100           20/  6/  7   N/A
POTOMAC MD       1100   84 84  310/  6/  8 1013.3R   1
CAMBRIDGE MD     1100   80 86   80/  4/  6 1013.7R
LEWISETTA VA     1100   81 85  280/  4/  5 1014.2R
RAPPAHANNOCK LGT 1100          240/ 10/ 11 1015.1R
STINGRAY PT      1100   82 84  200/ 10/ 14 1014.9R   1
YORK RVR RNG VA  1100   81     250/ 12/ 14 1014.2R
YORKTOWN VA      1100   80 83  230/  8/ 10 1014.3R
JAMESTOWN VA     1100   80 87  270/  4/  8   N/A     0
DOMINION TERM VA 1100   80     240/ 10/ 12 1015.1R
KIPTOPEKE VA     1100      80  250/ 12/ 14   N/A
CHES BAY BRIDGE  1100   80 80  210/ 12/ 13 1014.8R
CAPE HENRY VA    1100   80     220/  9/ 13   N/A
WILLOUBY STN VA  1100   80     230/ 10/ 11   N/A
CAPE HENRY BUOY  1112      76                N/A     2/ 8
1ST LANDING BUOY 1100   80 78  230/ 10/ 12 1014.8R
CAPE CHARLES BUO 1126      67                N/A     2/ 9
OFFSHORE WE BUOY 1121      81                N/A     3/ 4
64NM E OF VA BCH 1150   81 81  240/ 16/ 19 1014.9R   3/ 5   2/ 9
DUCK PIER NC     1100   80 60  250/ 12/ 17 1015.1R
44100 DUCK FRF   1105      78                N/A     2/ 8
44056 DUCK FRF   1111      67                N/A     1/10
OREGON INLET NC  1106   81 85  230/ 16/ 18 1015.5R
HATTERAS NC      1100   81 83  230/  5/  8 1016.0R
DIAMOND SHLS NC  1150   84 85  250/ 14/ 16 1016.2R   3/ 4   2/ 9
CAPE LOOKOUT NC  1200   84     240/  6/  7 1016.5R
$$




USA.gov is the U.S. government's official web portal to all federal, state and local government web resources and services.